Location: Bailleul
(50.3375°N, 2.8513°E)
Time: 16:07:01
(UTC+00:00)

TSX-5 - Pass Details

Date: 19 April 2021
Orbit: 404 x 1320 km, 68.9° (Epoch: 06 May)

Event Time Altitude Azimuth Distance (km) Brightness Sun altitude
Exits shadow 22:31:04 60° 15° (NNE) 690 4.4 -25.9°
Drops below altitude 10° 22:34:18 10° 31° (NNE) 1,784 6.9 -26.1°
Sets 22:36:14 0° 33° (NNE) 2,582 7.8 -26.2°
